This demonstration page uses our WeatherBlox Daily Observations layout. Learn more.

41.55636, -103.73856

Hourly Observations for February 6, 2019

Temp ( °F °C ) Dew Point ( °F °C ) Humidity (%) Winds ( mph kmh ) Pressure ( in mb ) Visibility ( mi km ) Precip ( " mm )
12:58 am 00:58 Clear 29 -1.5 23 -5.1 77 77 S 8 13 29.74 1007 10 16.0934 N/A
1:58 am 01:58 Clear 28 -2.3 22 -5.5 79 79 SSE 6 9 29.77 1008 10 16.0934 N/A
2:58 am 02:58 Clear 25 -3.9 22 -5.8 87 87 ESE 6 9 29.78 1009 7 11.26538 N/A
3:58 am 03:58 Clear 22 -5.7 19 -7.1 90 90 S 10 17 29.78 1009 6 9.65604 N/A
4:58 am 04:58 Clear with Mist and Fog 20 -6.9 18 -8 92 92 SSE 12 19 29.78 1008 4 6.43736 N/A
5:58 am 05:58 Mostly Cloudy with Freezing Fog 17 -8.2 15 -9.2 93 93 SSE 6 9 29.78 1009 1 1.60934 N/A
6:58 am 06:58 Mostly Cloudy with Freezing Fog 17 -8.6 14 -9.9 90 90 S 10 17 29.75 1008 1 1.60934 N/A
7:58 am 07:58 Mostly Cloudy with Freezing Fog 15 -9.5 12 -10.9 90 90 SSE 12 19 29.73 1007 1 1.60934 N/A
8:58 am 08:58 Mostly Cloudy with Freezing Fog 16 -8.8 14 -10.1 90 90 SSE 3 6 29.72 1007 1 1.60934 N/A
9:58 am 09:58 Mostly Cloudy with Freezing Fog 16 -8.9 14 -10.1 91 91 Calm 29.73 1007 1 1.60934 N/A
10:58 am 10:58 Mostly Cloudy with Freezing Fog 16 -9 13 -10.3 90 90 E 3 6 29.74 1007 1 1.60934 N/A
11:58 am 11:58 Mostly Cloudy with Freezing Fog 15 -9.4 13 -10.7 90 90 ENE 8 13 29.75 1008 5 8.0467 N/A
1:58 pm 13:58 Mostly Cloudy with Scattered Snow Showers 9 -12.8 6 -14.4 88 88 ENE 7 11 29.86 1011 1 1.60934 N/A
2:58 pm 14:58 Mostly Cloudy with Scattered Snow Showers 8 -13.2 5 -15 86 86 ENE 7 11 29.89 1012 0.75 1.207005 N/A
3:58 pm 15:58 Mostly Cloudy with Scattered Snow Showers 6 -14.5 2 -16.4 86 86 NE 3 6 29.94 1014 3 4.82802 N/A
4:58 pm 16:58 Cloudy with Light Snow 5 -14.8 2 -16.6 86 86 ENE 3 6 29.96 1015 1.5 2.41401 N/A
5:58 pm 17:58 Mostly Cloudy with Scattered Snow Showers 5 -15.2 1 -17.2 85 85 ENE 5 7 30 1016 2 3.21868 N/A
6:58 pm 18:58 Cloudy with Light Snow 4 -15.8 0 -17.7 85 85 NNE 3 6 30 1016 1 1.60934 N/A
7:58 pm 19:58 Cloudy with Light Snow 2 -16.7 -2 -18.8 84 84 N 6 9 30.02 1017 5 8.0467 N/A
8:58 pm 20:58 Cloudy with Snow 1 -17.4 -3 -19.5 84 84 N 3 6 30.04 1017 5 8.0467 N/A
9:58 pm 21:58 Mostly Cloudy with Scattered Snow Showers 1 -17.3 -3 -19.5 83 83 N 6 9 30.04 1017 5 8.0467 N/A
10:58 pm 22:58 Mostly Cloudy with Scattered Snow Showers -1 -18.2 -5 -20.4 83 83 N 6 9 30.04 1017 5 8.0467 N/A

Powered by AerisWeather